This demonstration page uses our WeatherBlox Daily Observations layout. Learn more.

Hourly Observations for February 2, 2017

Temp ( °F °C ) Dew Point ( °F °C ) Humidity (%) Winds ( mph kmh ) Pressure ( in mb ) Visibility ( mi km ) Precip ( " mm )
2:54 am 02:54 Cloudy 20 -6.7 9 -12.8 62 62 N 9 15 30.57 1035 10 16.0934 0 0
3:54 am 03:54 Clear 20 -6.7 10 -12.2 65 65 NNW 8 13 30.56 1035 10 16.0934 0 0
4:54 am 04:54 Partly Cloudy 20 -6.7 10 -12.2 65 65 NNW 9 15 30.58 1035 10 16.0934 0 0
5:54 am 05:54 Clear 19 -7.2 11 -11.7 71 71 NNW 6 9 30.58 1036 10 16.0934 0 0
6:54 am 06:54 Clear 20 -6.7 3 -16.1 48 48 NNW 14 22 30.6 1036 10 16.0934 0 0
7:54 am 07:54 Sunny 18 -7.8 5 -15 57 57 N 14 22 30.63 1037 10 16.0934 0 0
8:54 am 08:54 Sunny 19 -7.2 5 -15 54 54 NNW 13 20 30.66 1038 10 16.0934 0 0
9:54 am 09:54 Sunny 20 -6.7 4 -15.6 50 50 N 12 19 30.64 1038 10 16.0934 0 0
10:54 am 10:54 Sunny 22 -5.6 5 -15 48 48 N 10 17 30.63 1037 10 16.0934 0 0
11:54 am 11:54 Sunny 24 -4.4 6 -14.4 46 46 NNW 5 7 30.62 1037 10 16.0934 0 0
12:54 pm 12:54 Sunny 25 -3.9 7 -13.9 46 46 NNW 8 13 30.6 1036 10 16.0934 0 0
1:54 pm 13:54 Sunny 26 -3.3 8 -13.3 46 46 NNW 13 20 30.55 1035 10 16.0934 0 0
2:54 pm 14:54 Sunny 27 -2.8 9 -12.8 46 46 NNW 7 11 30.54 1034 10 16.0934 0 0
3:54 pm 15:54 Sunny 26 -3.3 9 -12.8 48 48 NNW 7 11 30.52 1034 10 16.0934 0 0
4:54 pm 16:54 Sunny 26 -3.3 9 -12.8 48 48 NW 8 13 30.53 1034 10 16.0934 0 0
5:54 pm 17:54 Clear 24 -4.4 10 -12.2 55 55 N 10 17 30.53 1034 10 16.0934 0 0
6:54 pm 18:54 Clear 24 -4.4 10 -12.2 55 55 N 8 13 30.53 1034 10 16.0934 0 0
7:54 pm 19:54 Mostly Clear 23 -5 10 -12.2 57 57 NNW 6 9 30.53 1034 10 16.0934 0 0
8:54 pm 20:54 Mostly Cloudy 23 -5 10 -12.2 57 57 NNW 7 11 30.53 1034 10 16.0934 0 0
9:54 pm 21:54 Cloudy 23 -5 11 -11.7 60 60 N 6 9 30.53 1034 10 16.0934 0 0
10:54 pm 22:54 Cloudy 23 -5 10 -12.2 57 57 NNW 6 9 30.54 1034 10 16.0934 0 0
11:54 pm 23:54 Cloudy 23 -5 10 -12.2 57 57 NNW 9 15 30.56 1035 10 16.0934 0 0

Powered by AerisWeather